Location: Newark
(41.6500°N, 71.4833°W)
Time: 13:41:10
(UTC+00:00)

Transit 2A Rocket - Pass Details

Date: 27 January 2020
Orbit: 591 x 912 km, 66.7° (Epoch: 24 February)

Event Time Altitude Azimuth Distance (km) Brightness Sun altitude
Rises 19:47:41 0° 310° (NW) 3,094 8.2 18.3°
Reaches altitude 10° 19:50:50 10° 289° (WNW) 2,237 7.8 17.9°
Maximum altitude 19:53:47 16° 253° (WSW) 1,933 8.4 17.6°
Drops below altitude 10° 19:56:53 10° 218° (SW) 2,354 10.0 17.2°
Sets 20:00:20 0° 197° (SSW) 3,347 9.4 16.7°
